Weather WX

World > North America > United States > Mississippi

Macel, Mississippi Regional Weather

Lat: 33.82N, Lon: 90.16W
Wx Zone: MSZ020
Warning FLW WEATHER ALERT - (More Info. Click Here) Warning
Feedback

Macel, MS Regional Weather

Expires:201906161100;;155162
ASUS44 KJAN 161010
RWRMS 

MISSISSIPPI HOURLY WEATHER ROUNDUP
NATIONAL WEATHER SERVICE JACKSON MS
500 AM CDT SUN JUN 16 2019

NOTE: "FAIR: INDICATES FEW OR NO CLOUDS BELOW 12,000 FEET WITH NO
SIGNIFICANT WEATHER AND/OR OBSTRUCTIONS TO VISIBILITY.


MSZ001>002-007>008-010>013-018>021-025>028-034>036-161100-
NORTHWEST MISSISSIPPI
  
CITY           SKY/WX    TMP DP  RH WIND       PRES   REMARKS
BATESVILLE       N/A     75  72  88 S7        29.93S                  
CLARKSDALE       N/A     77  77 100 CALM      29.93R                  
CLEVELAND      FAIR      77  74  88 SW10      29.94R                  
GREENWOOD      FAIR      75  71  87 S6        29.95R                  
GREENVILLE     FAIR      78  72  81 S12       29.94R                  
OLIVE BRANCH   FOG       72  72 100 S6        29.93R VSB 1/2          
OXFORD         FAIR      73  70  88 S8        29.96R                  
TUNICA           N/A     75  70  83 S12G21    29.93R                  
WINONA         FAIR      74  74 100 S6        29.97R                  
$$


SKY/WX - Weather  TMP - Temperature  DP - Dew Point  RH - Relative Humidity
WIND - Wind Direction/Speed PRES - Barometric Pressure VSB - Visibility
WCI - Wind Chill Index E13G22 Wind - East Wind 13 mph/Gusts of 22 mph